Change the Weather History Date:

Wednesday, October 10, 2012

  Actual Average Record
Temperature  
Mean Temperature 40 °F -  
Max Temperature 51 °F 44 °F 55 °F (1979)
Min Temperature 30 °F 30 °F 13 °F (1961)
Degree Days  
Heating Degree Days 24    
Moisture  
Dew Point 37 °F    
Average Humidity 84    
Maximum Humidity 100    
Minimum Humidity 58    
Precipitation  
Precipitation 0.00 in - - ()
Sea Level Pressure  
Sea Level Pressure 30.01 in    
Wind  
Wind Speed 2 mph (NE)    
Max Wind Speed 13 mph    
Max Gust Speed 18 mph    
Visibility 10 miles    
Events      
Averages and records for this station are not official NWS values.
T = Trace of Precipitation, MM = Missing Value Source: NWS Daily Summary

Daily Weather History Graph

Daily Weather History Graph

Search for Another Location

Airport or City:

Trip Planner

Search our weather history database for the weather conditions in past years. The results will help you decide how hot, cold, wet, or windy it might be!

Date:

Astronomy

Oct. 10, 2012 Rise Set
Actual Time 8:33 AM AKDT 7:06 PM AKDT
Civil Twilight 7:51 AM AKDT 7:49 PM AKDT
Nautical Twilight 7:02 AM AKDT 8:37 PM AKDT
Astronomical Twilight 6:12 AM AKDT 9:27 PM AKDT
Moon 2:05 AM AKDT (10/10) 5:18 PM AKDT (10/10)
Length of Visible Light 11h 57m
Length of Day
10h 32m
Waning Crescent, 26% of the Moon is Illuminated
Oct 10
Waning Crescent
Oct 15
New
Oct 21
First Quarter
Oct 29
Full
Nov 6
Last Quarter

Hourly Weather History & Observations

Time (AKDT) Temp. Windchill Dew Point Humidity Pressure Visibility Wind Dir Wind Speed Gust Speed Precip Events Conditions
12:16 AM 42.8 °F - 39.2 °F 87% 30.09 in 10.0 mi Calm Calm - N/A   Overcast
12:36 AM 39.2 °F - 37.4 °F 93% 30.09 in 10.0 mi Calm Calm - N/A   Overcast
12:56 AM 39.2 °F - 39.2 °F 100% 30.09 in 10.0 mi Calm Calm - N/A   Overcast
1:16 AM 41.0 °F - 39.2 °F 93% 30.09 in 10.0 mi Calm Calm - N/A   Overcast
1:36 AM 41.0 °F - 39.2 °F 93% 30.09 in 10.0 mi Calm Calm - N/A   Overcast
1:56 AM 41.0 °F - 39.2 °F 93% 30.09 in 10.0 mi Calm Calm - N/A   Overcast
2:16 AM 39.2 °F - 39.2 °F 100% 30.08 in 10.0 mi Calm Calm - N/A   Overcast
2:36 AM 39.2 °F - 37.4 °F 93% 30.07 in 10.0 mi Calm Calm - N/A   Overcast
2:56 AM 39.2 °F - 39.2 °F 100% 30.07 in 10.0 mi Calm Calm - N/A   Overcast
3:16 AM 39.2 °F - 37.4 °F 93% 30.07 in 10.0 mi Calm Calm - N/A   Overcast
3:36 AM 39.2 °F - 39.2 °F 100% 30.07 in 10.0 mi Calm Calm - N/A   Overcast
3:56 AM 39.2 °F - 39.2 °F 100% 30.06 in 10.0 mi Calm Calm - N/A   Overcast
4:16 AM 39.2 °F - 39.2 °F 100% 30.06 in 10.0 mi Calm Calm - N/A   Overcast
4:36 AM 39.2 °F - 39.2 °F 100% 30.05 in 10.0 mi Calm Calm - N/A   Overcast
4:56 AM 39.2 °F - 39.2 °F 100% 30.05 in 10.0 mi Calm Calm - N/A   Overcast
5:16 AM 41.0 °F - 39.2 °F 93% 30.05 in 10.0 mi Calm Calm - N/A   Overcast
5:36 AM 41.0 °F - 39.2 °F 93% 30.04 in 10.0 mi Calm Calm - N/A   Overcast
5:56 AM 41.0 °F - 39.2 °F 93% 30.04 in 10.0 mi Calm Calm - N/A   Overcast
6:16 AM 41.0 °F - 39.2 °F 93% 30.03 in 10.0 mi Calm Calm - N/A   Overcast
6:36 AM 41.0 °F - 39.2 °F 93% 30.03 in 10.0 mi Calm Calm - N/A   Overcast
6:56 AM 41.0 °F - 39.2 °F 93% 30.03 in 10.0 mi Calm Calm - N/A   Overcast
7:16 AM 41.0 °F - 39.2 °F 93% 30.02 in 10.0 mi Calm Calm - N/A   Overcast
7:36 AM 39.2 °F - 39.2 °F 100% 30.02 in 10.0 mi Calm Calm - N/A   Overcast
7:56 AM 39.2 °F - 37.4 °F 93% 30.02 in 10.0 mi Calm Calm - N/A   Overcast
8:16 AM 39.2 °F - 37.4 °F 93% 30.02 in 10.0 mi Calm Calm - N/A   Mostly Cloudy
8:56 AM 37.4 °F - 37.4 °F 100% 30.02 in 9.0 mi Calm Calm - N/A   Scattered Clouds
9:16 AM 37.4 °F - 35.6 °F 93% 30.02 in 10.0 mi Calm Calm - N/A   Clear
9:36 AM 35.6 °F - 33.8 °F 93% 30.02 in 10.0 mi Calm Calm - N/A   Clear
9:56 AM 37.4 °F - 35.6 °F 93% 30.02 in 9.0 mi Calm Calm - N/A   Clear
10:16 AM 37.4 °F - 35.6 °F 93% 30.02 in 10.0 mi Calm Calm - N/A   Mostly Cloudy
10:36 AM 37.4 °F - 37.4 °F 100% 30.02 in 10.0 mi Calm Calm - N/A   Overcast
10:56 AM 39.2 °F - 37.4 °F 93% 30.02 in 10.0 mi Calm Calm - N/A   Overcast
11:16 AM 41.0 °F - 39.2 °F 93% 30.02 in 10.0 mi Calm Calm - N/A   Overcast
11:36 AM 42.8 °F 41.1 °F 39.2 °F 87% 30.01 in 10.0 mi North 3.5 mph - N/A   Overcast
11:56 AM 42.8 °F 41.1 °F 39.2 °F 87% 30.01 in 10.0 mi NNE 3.5 mph - N/A   Overcast
12:16 PM 44.6 °F 42.2 °F 42.8 °F 93% 30.01 in 10.0 mi ENE 4.6 mph - N/A   Overcast
12:36 PM 44.6 °F 40.2 °F 42.8 °F 93% 30.02 in 10.0 mi ENE 8.1 mph - N/A   Overcast
12:56 PM 46.4 °F 42.4 °F 42.8 °F 87% 30.02 in 10.0 mi ENE 8.1 mph - N/A   Overcast
1:16 PM 46.4 °F 42.9 °F 41.0 °F 81% 30.02 in 10.0 mi NE 6.9 mph - N/A   Overcast
1:36 PM 46.4 °F 41.5 °F 39.2 °F 76% 30.01 in 10.0 mi NE 10.4 mph - N/A   Overcast
1:56 PM 46.4 °F 41.5 °F 41.0 °F 81% 30.01 in 10.0 mi NE 10.4 mph - N/A   Mostly Cloudy
2:16 PM 46.4 °F 42.9 °F 42.8 °F 87% 30.01 in 10.0 mi NE 6.9 mph - N/A   Scattered Clouds
2:36 PM 48.2 °F - 41.0 °F 76% 30.00 in 10.0 mi NNE 12.7 mph 18.4 mph N/A   Mostly Cloudy
2:56 PM 48.2 °F - 39.2 °F 71% 30.00 in 10.0 mi NE 12.7 mph 18.4 mph N/A   Partly Cloudy
3:16 PM 50.0 °F - 39.2 °F 66% 29.99 in 10.0 mi ENE 11.5 mph - N/A   Clear
3:36 PM 51.8 °F - 39.2 °F 62% 29.99 in 10.0 mi ENE 10.4 mph - N/A   Clear
3:56 PM 51.8 °F - 37.4 °F 58% 29.99 in 10.0 mi NE 9.2 mph - N/A   Clear
4:16 PM 51.8 °F - 37.4 °F 58% 29.98 in 10.0 mi ENE 9.2 mph - N/A   Clear
4:36 PM 51.8 °F - 37.4 °F 58% 29.98 in 10.0 mi ENE 12.7 mph 16.1 mph N/A   Clear
4:56 PM 50.0 °F - 35.6 °F 58% 29.98 in 10.0 mi NE 10.4 mph 16.1 mph N/A   Clear
5:16 PM 50.0 °F - 35.6 °F 58% 29.97 in 10.0 mi ENE 12.7 mph - N/A   Clear
5:36 PM 50.0 °F - 35.6 °F 58% 29.97 in 10.0 mi NE 8.1 mph - N/A   Clear
5:56 PM 50.0 °F - 35.6 °F 58% 29.97 in 10.0 mi NE 8.1 mph - N/A   Clear
6:16 PM 48.2 °F - 35.6 °F 62% 29.97 in 10.0 mi ENE 8.1 mph - N/A   Clear
6:36 PM 48.2 °F - 35.6 °F 62% 29.97 in 10.0 mi ENE 5.8 mph - N/A   Clear
6:56 PM 48.2 °F - 33.8 °F 58% 29.96 in 10.0 mi ENE 4.6 mph - N/A   Clear
7:16 PM 46.4 °F 45.2 °F 35.6 °F 66% 29.96 in 10.0 mi ENE 3.5 mph - N/A   Clear
7:36 PM 42.8 °F - 35.6 °F 76% 29.96 in 10.0 mi Calm Calm - N/A   Clear
7:56 PM 41.0 °F - 35.6 °F 81% 29.96 in 10.0 mi Calm Calm - N/A   Clear
8:16 PM 37.4 °F - 33.8 °F 87% 29.96 in 10.0 mi Calm Calm - N/A   Clear
8:36 PM 37.4 °F - 33.8 °F 87% 29.96 in 10.0 mi Calm Calm - N/A   Clear
8:56 PM 35.6 °F - 30.2 °F 81% 29.96 in 10.0 mi Calm Calm - N/A   Clear
9:16 PM 35.6 °F - 32.0 °F 87% 29.95 in - Calm Calm - N/A   Unknown
9:36 PM 33.8 °F - 30.2 °F 87% 29.95 in - Calm Calm - N/A   Unknown
9:56 PM 35.6 °F - 30.2 °F 81% 29.95 in - Calm Calm - N/A   Clear
10:16 PM 37.4 °F 34.9 °F 30.2 °F 75% 29.95 in - NE 3.5 mph - N/A   Clear
10:36 PM 39.2 °F 37.0 °F 28.4 °F 65% 29.95 in - NE 3.5 mph - N/A   Clear
10:56 PM 35.6 °F - 28.4 °F 75% 29.95 in - Calm Calm - N/A   Clear
11:16 PM 35.6 °F - 28.4 °F 75% 29.94 in - Calm Calm - N/A   Clear
11:36 PM 30.2 °F - 26.6 °F 86% 29.93 in 10.0 mi Calm Calm - N/A   Clear
11:56 PM 30.2 °F - 26.6 °F 86% 29.93 in 10.0 mi Calm Calm - N/A   Clear